| time (UTC) | temp C | wind direction | speed KPH | gust KPH | rain 1hr cm | rain 24hr cm | rain mn cm | humidity % | barometer mb |
| 20260901040625 | 23 | 235 | 0.0 | 0.0 | 0.00 | 0.00 | 0.00 | 75 | 1026.8 |
| 20260901040058 | 23 | 235 | 0.0 | 0.0 | 0.00 | 0.00 | 0.00 | 75 | 1026.8 |
| 20260901035534 | 23 | 235 | 0.0 | 0.0 | 0.00 | 0.00 | 0.00 | 75 | 1026.9 |
| 20260901035023 | 23 | 235 | 0.0 | 0.0 | 0.00 | 0.00 | 0.00 | 75 | 1026.9 |
| 20260901034519 | 23 | 235 | 0.0 | 0.0 | 0.00 | 0.00 | 0.00 | 76 | 1027.0 |
| 20260901034017 | 23 | 235 | 0.0 | 0.0 | 0.00 | 0.00 | 0.00 | 76 | 1027.0 |
| 20260901033516 | 23 | 235 | 0.0 | 0.0 | 0.00 | 0.00 | 0.00 | 76 | 1027.0 |
| 20260901033010 | 23 | 235 | 0.0 | 0.0 | 0.00 | 0.00 | 0.00 | 76 | 1027.2 |
| 20260901032445 | 23 | 235 | 0.0 | 0.0 | 0.00 | 0.00 | 0.00 | 76 | 1027.0 |
| 20260901031942 | 23 | 235 | 0.0 | 0.0 | 0.00 | 0.00 | 0.00 | 76 | 1026.8 |
| 20260901031418 | 23 | 235 | 0.0 | 0.0 | 0.00 | 0.00 | 0.00 | 76 | 1026.8 |
| 20260901030852 | 23 | 235 | 0.0 | 0.0 | 0.00 | 0.00 | 0.00 | 76 | 1026.9 |
| 20260901030346 | 23 | 235 | 0.0 | 0.0 | 0.00 | 0.00 | 0.00 | 75 | 1026.8 |
| 20260901030323 | 23 | 235 | 0.0 | 0.0 | 0.00 | 0.00 | 0.00 | 75 | 1026.8 |
| 20260901025534 | 23 | 235 | 0.0 | 0.0 | 0.00 | 0.00 | 0.00 | 75 | 1026.8 |
| 20260901024759 | 23 | 234 | 0.0 | 0.0 | 0.00 | 0.00 | 0.00 | 74 | 1026.8 |
| 20260901024258 | 23 | 235 | 0.0 | 0.0 | 0.00 | 0.00 | 0.00 | 74 | 1026.6 |
| 20260901023753 | 23 | 234 | 0.0 | 0.0 | 0.00 | 0.00 | 0.00 | 74 | 1026.7 |
| 20260901023246 | 24 | 235 | 0.0 | 0.0 | 0.00 | 0.00 | 0.00 | 74 | 1026.7 |
| 20260901022720 | 24 | 235 | 0.0 | 0.0 | 0.00 | 0.00 | 0.00 | 73 | 1026.7 |
| 20260901022211 | 24 | 235 | 0.0 | 0.0 | 0.00 | 0.00 | 0.00 | 73 | 1026.6 |
| 20260901021708 | 24 | 238 | 0.0 | 0.0 | 0.00 | 0.00 | 0.00 | 73 | 1026.5 |
| 20260901021152 | 25 | 238 | 0.0 | 0.0 | 0.00 | 0.00 | 0.00 | 72 | 1026.6 |
| 20260901020650 | 25 | 238 | 0.0 | 0.0 | 0.00 | 0.00 | 0.00 | 71 | 1026.6 |
| 20260901020151 | 25 | 238 | 0.0 | 0.0 | 0.00 | 0.00 | 0.00 | 71 | 1026.5 |
| 20260901015649 | 25 | 238 | 0.0 | 0.0 | 0.00 | 0.00 | 0.00 | 70 | 1026.5 |
| 20260901015145 | 25 | 238 | 0.0 | 0.0 | 0.00 | 0.00 | 0.00 | 69 | 1026.4 |
| 20260901014644 | 25 | 238 | 0.0 | 0.0 | 0.00 | 0.00 | 0.00 | 68 | 1026.4 |
| 20260901014125 | 25 | 238 | 0.0 | 0.0 | 0.00 | 0.00 | 0.00 | 68 | 1026.4 |
| 20260901013621 | 25 | 238 | 0.0 | 0.0 | 0.00 | 0.00 | 0.00 | 67 | 1026.3 |
| 20260901013111 | 25 | 238 | 0.0 | 0.0 | 0.00 | 0.00 | 0.00 | 66 | 1026.2 |
| 20260901012607 | 26 | 238 | 0.0 | 0.0 | 0.00 | 0.00 | 0.00 | 66 | 1026.1 |
| 20260901012105 | 26 | 238 | 0.0 | 0.0 | 0.00 | 0.00 | 0.00 | 65 | 1026.1 |
| 20260901011537 | 26 | 238 | 0.0 | 0.0 | 0.00 | 0.00 | 0.00 | 65 | 1026.1 |
| 20260901011033 | 26 | 238 | 0.0 | 0.0 | 0.00 | 0.00 | 0.00 | 64 | 1026.0 |
| 20260901010507 | 26 | 238 | 0.0 | 0.0 | 0.00 | 0.00 | 0.00 | 64 | 1026.0 |
| 20260901010229 | 26 | 238 | 0.0 | 0.0 | 0.00 | 0.00 | 0.00 | 64 | 1026.0 |
| 20260901005432 | 27 | 238 | 0.0 | 0.0 | 0.00 | 0.00 | 0.00 | 63 | 1026.0 |
| 20260901005153 | 27 | 238 | 0.0 | 0.0 | 0.00 | 0.00 | 0.00 | 63 | 1026.1 |
| 20260901004417 | 27 | 238 | 0.0 | 0.0 | 0.00 | 0.00 | 0.00 | 63 | 1025.9 |
| 20260901003848 | 27 | 238 | 0.0 | 0.0 | 0.00 | 0.00 | 0.00 | 62 | 1025.9 |
| 20260901003613 | 27 | 236 | 0.0 | 0.0 | 0.00 | 0.00 | 0.00 | 61 | 1025.9 |
| 20260901002831 | 28 | 259 | 0.0 | 0.0 | 0.00 | 0.00 | 0.00 | 61 | 1025.8 |
| 20260901002327 | 28 | 259 | 0.0 | 0.0 | 0.00 | 0.00 | 0.00 | 60 | 1025.8 |
| 20260901001825 | 28 | 259 | 0.0 | 0.0 | 0.00 | 0.00 | 0.00 | 60 | 1025.8 |
| 20260901001300 | 28 | 259 | 0.0 | 0.0 | 0.00 | 0.00 | 0.00 | 59 | 1025.9 |
| 20260901001002 | 28 | 259 | 0.0 | 0.0 | 0.00 | 0.00 | 0.00 | 58 | 1025.9 |
| 20260901000445 | 29 | 259 | 0.0 | 0.0 | 0.00 | 0.00 | 0.00 | 58 | 1025.8 |
| 20260831235700 | 29 | 259 | 0.0 | 0.0 | 0.00 | 0.00 | 0.00 | 57 | 1025.7 |
| 20260831235156 | 30 | 260 | 0.0 | 0.0 | 0.00 | 0.00 | 0.00 | 56 | 1025.7 |
| 20260831234924 | 30 | 234 | 0.0 | 0.0 | 0.00 | 0.00 | 0.00 | 54 | 1025.7 |
| 20260831234356 | 30 | 234 | 0.0 | 0.0 | 0.00 | 0.00 | 0.00 | 52 | 1025.7 |
| 20260831233623 | 31 | 234 | 0.0 | 0.0 | 0.00 | 0.00 | 0.00 | 50 | 1025.7 |
| 20260831233111 | 31 | 234 | 0.0 | 0.0 | 0.00 | 0.00 | 0.00 | 48 | 1025.8 |
| 20260831232609 | 31 | 227 | 0.0 | 0.0 | 0.00 | 0.00 | 0.00 | 47 | 1025.7 |
| 20260831232108 | 31 | 91 | 0.0 | 0.0 | 0.00 | 0.00 | 0.00 | 45 | 1025.7 |
| 20260831231539 | 32 | 91 | 0.0 | 0.0 | 0.00 | 0.00 | 0.00 | 43 | 1025.7 |
| 20260831231035 | 32 | 91 | 0.0 | 0.0 | 0.00 | 0.00 | 0.00 | 44 | 1025.6 |
| 20260831230527 | 32 | 240 | 0.0 | 0.0 | 0.00 | 0.00 | 0.00 | 43 | 1025.6 |
| 20260831230025 | 33 | 240 | 0.0 | 0.0 | 0.00 | 0.00 | 0.00 | 42 | 1025.6 |
| 20260831225530 | 33 | 228 | 0.0 | 0.0 | 0.00 | 0.00 | 0.00 | 42 | 1025.6 |
| 20260831225001 | 33 | 228 | 0.0 | 0.0 | 0.00 | 0.00 | 0.00 | 41 | 1025.6 |
| 20260831224500 | 33 | 265 | 0.0 | 0.0 | 0.00 | 0.00 | 0.00 | 41 | 1025.5 |
| 20260831224202 | 34 | 283 | 0.0 | 0.0 | 0.00 | 0.00 | 0.00 | 40 | 1025.5 |
| 20260831223430 | 34 | 284 | 0.0 | 0.0 | 0.00 | 0.00 | 0.00 | 38 | 1025.6 |
| 20260831223137 | 35 | 284 | 0.0 | 0.0 | 0.00 | 0.00 | 0.00 | 37 | 1025.5 |
| 20260831222404 | 35 | 229 | 0.0 | 0.0 | 0.00 | 0.00 | 0.00 | 38 | 1025.4 |
| 20260831221901 | 35 | 279 | 0.0 | 0.0 | 0.00 | 0.00 | 0.00 | 40 | 1025.4 |
| 20260831221333 | 35 | 279 | 0.0 | 0.0 | 0.00 | 0.00 | 0.00 | 38 | 1025.4 |
| 20260831220832 | 35 | 280 | 0.0 | 0.0 | 0.00 | 0.00 | 0.00 | 37 | 1025.3 |
| 20260831220534 | 35 | 263 | 0.0 | 0.0 | 0.00 | 0.00 | 0.00 | 36 | 1025.2 |
| 20260831215802 | 35 | 223 | 0.0 | 0.0 | 0.00 | 0.00 | 0.00 | 40 | 1025.2 |
| 20260831215243 | 35 | 223 | 0.0 | 0.0 | 0.00 | 0.00 | 0.00 | 37 | 1025.3 |
| 20260831214715 | 35 | 221 | 0.0 | 0.0 | 0.00 | 0.00 | 0.00 | 37 | 1025.2 |
| 20260831214211 | 35 | 221 | 0.0 | 0.0 | 0.00 | 0.00 | 0.00 | 36 | 1025.2 |
| 20260831213709 | 36 | 278 | 0.0 | 0.0 | 0.00 | 0.00 | 0.00 | 36 | 1025.1 |
| 20260831213207 | 36 | 231 | 0.0 | 0.0 | 0.00 | 0.00 | 0.00 | 35 | 1025.1 |
| 20260831212649 | 36 | 231 | 0.0 | 1.6 | 0.00 | 0.00 | 0.00 | 36 | 1025.1 |
| 20260831212153 | 36 | 231 | 0.0 | 1.6 | 0.00 | 0.00 | 0.00 | 34 | 1025.1 |
| 20260831211630 | 36 | 287 | 0.0 | 0.0 | 0.00 | 0.00 | 0.00 | 36 | 1025.0 |
| 20260831211130 | 36 | 180 | 0.0 | 0.0 | 0.00 | 0.00 | 0.00 | 34 | 1025.0 |
| 20260831210904 | 36 | 178 | 0.0 | 0.0 | 0.00 | 0.00 | 0.00 | 34 | 1025.0 |
| 20260831210629 | 36 | 178 | 0.0 | 0.0 | 0.00 | 0.00 | 0.00 | 35 | 1025.0 |
| 20260831205856 | 36 | 229 | 0.0 | 0.0 | 0.00 | 0.00 | 0.00 | 38 | 1025.0 |
| 20260831205129 | 36 | 236 | 0.0 | 0.0 | 0.00 | 0.00 | 0.00 | 38 | 1025.0 |
| 20260831204602 | 36 | 237 | 0.0 | 0.0 | 0.00 | 0.00 | 0.00 | 41 | 1024.9 |
| 20260831204057 | 36 | 260 | 0.0 | 0.0 | 0.00 | 0.00 | 0.00 | 42 | 1024.9 |
| 20260831203530 | 35 | 260 | 0.0 | 0.0 | 0.00 | 0.00 | 0.00 | 42 | 1024.9 |
| 20260831203010 | 35 | 273 | 0.0 | 0.0 | 0.00 | 0.00 | 0.00 | 39 | 1025.0 |
| 20260831202507 | 36 | 271 | 0.0 | 0.0 | 0.00 | 0.00 | 0.00 | 41 | 1025.0 |
| 20260831202240 | 35 | 192 | 0.0 | 0.0 | 0.00 | 0.00 | 0.00 | 42 | 1025.0 |
| 20260831202110 | 36 | 254 | 0.0 | 0.0 | 0.00 | 0.00 | 0.00 | 41 | 1025.0 |
| 20260831201002 | 35 | 240 | 0.0 | 0.0 | 0.00 | 0.00 | 0.00 | 43 | 1025.0 |
| 20260831200437 | 35 | 223 | 0.0 | 0.0 | 0.00 | 0.00 | 0.00 | 42 | 1025.0 |
| 20260831195909 | 35 | 211 | 0.0 | 0.0 | 0.00 | 0.00 | 0.00 | 42 | 1025.0 |
| 20260831195408 | 35 | 211 | 0.0 | 0.0 | 0.00 | 0.00 | 0.00 | 42 | 1024.9 |
| 20260831194839 | 35 | 210 | 0.0 | 0.0 | 0.00 | 0.00 | 0.00 | 40 | 1024.9 |
| 20260831194338 | 35 | 257 | 0.0 | 0.0 | 0.00 | 0.00 | 0.00 | 41 | 1024.9 |
| 20260831193811 | 35 | 200 | 0.0 | 0.0 | 0.00 | 0.00 | 0.00 | 43 | 1024.9 |
| 20260831193308 | 35 | 221 | 0.0 | 0.0 | 0.00 | 0.00 | 0.00 | 42 | 1024.9 |
| 20260831193038 | 35 | 221 | 0.0 | 0.0 | 0.00 | 0.00 | 0.00 | 42 | 1024.9 |
| 20260831192306 | 35 | 221 | 0.0 | 0.0 | 0.00 | 0.00 | 0.00 | 42 | 1024.8 |
| 20260831191759 | 35 | 221 | 0.0 | 0.0 | 0.00 | 0.00 | 0.00 | 43 | 1024.8 |
| 20260831191304 | 35 | 205 | 0.0 | 0.0 | 0.00 | 0.00 | 0.00 | 43 | 1024.8 |
| 20260831190738 | 35 | 218 | 0.0 | 0.0 | 0.00 | 0.00 | 0.00 | 45 | 1024.8 |
| 20260831190214 | 35 | 209 | 0.0 | 0.0 | 0.00 | 0.00 | 0.00 | 46 | 1024.9 |
| 20260831185919 | 35 | 260 | 0.0 | 0.0 | 0.00 | 0.00 | 0.00 | 43 | 1024.9 |
| 20260831185147 | 34 | 259 | 0.0 | 0.0 | 0.00 | 0.00 | 0.00 | 47 | 1024.8 |
| 20260831184644 | 34 | 259 | 0.0 | 0.0 | 0.00 | 0.00 | 0.00 | 47 | 1024.8 |
| 20260831184144 | 34 | 269 | 0.0 | 0.0 | 0.00 | 0.00 | 0.00 | 48 | 1024.8 |
| 20260831183633 | 33 | 278 | 0.0 | 0.0 | 0.00 | 0.00 | 0.00 | 47 | 1024.6 |
| 20260831183131 | 33 | 249 | 0.0 | 0.0 | 0.00 | 0.00 | 0.00 | 48 | 1024.6 |
| 20260831182628 | 33 | 319 | 0.0 | 0.0 | 0.00 | 0.00 | 0.00 | 51 | 1024.8 |
| 20260831182113 | 33 | 320 | 0.0 | 0.0 | 0.00 | 0.00 | 0.00 | 54 | 1024.6 |
| 20260831181614 | 33 | 0 | 0.0 | 0.0 | 0.00 | 0.00 | 0.00 | 54 | 1024.6 |
| 20260831181050 | 33 | 9 | 0.0 | 0.0 | 0.00 | 0.00 | 0.00 | 55 | 1024.8 |
| 20260831180548 | 33 | 46 | 0.0 | 0.0 | 0.00 | 0.00 | 0.00 | 54 | 1024.8 |
| 20260831180047 | 32 | 80 | 0.0 | 0.0 | 0.00 | 0.00 | 0.00 | 55 | 1024.8 |
| 20260831175551 | 32 | 61 | 0.0 | 0.0 | 0.00 | 0.00 | 0.00 | 55 | 1024.9 |
| 20260831175028 | 32 | 59 | 0.0 | 0.0 | 0.00 | 0.00 | 0.00 | 58 | 1025.0 |
| 20260831174527 | 32 | 59 | 0.0 | 0.0 | 0.00 | 0.00 | 0.00 | 57 | 1025.1 |
| 20260831174005 | 31 | 229 | 0.0 | 0.0 | 0.00 | 0.00 | 0.00 | 61 | 1025.1 |
| 20260831173440 | 31 | 229 | 0.0 | 0.0 | 0.00 | 0.00 | 0.00 | 65 | 1025.1 |
| 20260831172939 | 31 | 229 | 0.0 | 0.0 | 0.00 | 0.00 | 0.00 | 66 | 1025.1 |
| 20260831172441 | 31 | 232 | 0.0 | 0.0 | 0.00 | 0.00 | 0.00 | 67 | 1025.2 |
| 20260831171919 | 31 | 217 | 0.0 | 0.0 | 0.00 | 0.00 | 0.00 | 68 | 1025.1 |
| 20260831171418 | 30 | 217 | 0.0 | 0.0 | 0.00 | 0.00 | 0.00 | 68 | 1025.1 |
| 20260831170854 | 30 | 211 | 0.0 | 0.0 | 0.00 | 0.00 | 0.00 | 69 | 1025.2 |
| 20260831170327 | 30 | 210 | 0.0 | 0.0 | 0.00 | 0.00 | 0.00 | 69 | 1025.2 |
| 20260831165812 | 30 | 262 | 0.0 | 0.0 | 0.00 | 0.00 | 0.00 | 68 | 1025.1 |
| 20260831165311 | 30 | 181 | 0.0 | 0.0 | 0.00 | 0.00 | 0.00 | 69 | 1025.1 |
| 20260831164812 | 30 | 133 | 0.0 | 0.0 | 0.00 | 0.00 | 0.00 | 69 | 1025.1 |
| 20260831164520 | 30 | 132 | 0.0 | 0.0 | 0.00 | 0.00 | 0.00 | 69 | 1025.0 |
| 20260831163724 | 30 | 143 | 0.0 | 0.0 | 0.00 | 0.00 | 0.00 | 69 | 1024.9 |
| 20260831163205 | 30 | 78 | 0.0 | 0.0 | 0.00 | 0.00 | 0.00 | 69 | 1024.9 |
| 20260831162639 | 30 | 248 | 0.0 | 0.0 | 0.00 | 0.00 | 0.00 | 70 | 1024.8 |
| 20260831162138 | 29 | 248 | 0.0 | 0.0 | 0.00 | 0.00 | 0.00 | 70 | 1024.8 |
| 20260831161618 | 29 | 236 | 0.0 | 0.0 | 0.00 | 0.00 | 0.00 | 72 | 1024.6 |
| 20260831161059 | 29 | 236 | 0.0 | 0.0 | 0.00 | 0.00 | 0.00 | 73 | 1024.4 |
| 20260831160538 | 28 | 236 | 0.0 | 0.0 | 0.00 | 0.00 | 0.00 | 74 | 1024.4 |
| 20260831160034 | 28 | 236 | 0.0 | 0.0 | 0.00 | 0.00 | 0.00 | 75 | 1024.5 |
| 20260831155536 | 28 | 236 | 0.0 | 0.0 | 0.00 | 0.00 | 0.00 | 75 | 1024.5 |
| 20260831155006 | 28 | 225 | 0.0 | 0.0 | 0.00 | 0.00 | 0.00 | 75 | 1024.6 |
| 20260831154505 | 28 | 252 | 0.0 | 0.0 | 0.00 | 0.00 | 0.00 | 76 | 1024.4 |
| 20260831154000 | 28 | 252 | 0.0 | 0.0 | 0.00 | 0.00 | 0.00 | 77 | 1024.5 |
| 20260831153450 | 28 | 252 | 0.0 | 0.0 | 0.00 | 0.00 | 0.00 | 79 | 1024.5 |
| 20260831153215 | 28 | 252 | 0.0 | 0.0 | 0.00 | 0.00 | 0.00 | 80 | 1024.5 |
| 20260831152441 | 27 | 252 | 0.0 | 0.0 | 0.00 | 0.00 | 0.00 | 81 | 1024.4 |
| 20260831151939 | 27 | 183 | 0.0 | 0.0 | 0.00 | 0.00 | 0.00 | 82 | 1024.4 |
| 20260831151440 | 27 | 183 | 0.0 | 0.0 | 0.00 | 0.00 | 0.00 | 82 | 1024.3 |
| 20260831150940 | 26 | 183 | 0.0 | 0.0 | 0.00 | 0.00 | 0.00 | 82 | 1024.4 |
| 20260831150417 | 26 | 224 | 0.0 | 0.0 | 0.00 | 0.00 | 0.00 | 84 | 1024.3 |
| 20260831145848 | 26 | 235 | 0.0 | 0.0 | 0.00 | 0.00 | 0.00 | 85 | 1024.3 |
| 20260831145349 | 26 | 235 | 0.0 | 0.0 | 0.00 | 0.00 | 0.00 | 85 | 1024.3 |
| 20260831144823 | 26 | 240 | 0.0 | 0.0 | 0.00 | 0.00 | 0.00 | 86 | 1024.1 |
| 20260831144301 | 25 | 263 | 0.0 | 0.0 | 0.00 | 0.00 | 0.00 | 88 | 1024.0 |
| 20260831143758 | 25 | 263 | 0.0 | 0.0 | 0.00 | 0.00 | 0.00 | 89 | 1023.9 |
| 20260831143533 | 25 | 257 | 0.0 | 0.0 | 0.00 | 0.00 | 0.00 | 89 | 1023.9 |
| 20260831143005 | 25 | 257 | 0.0 | 0.0 | 0.00 | 0.00 | 0.00 | 91 | 1023.7 |
| 20260831142504 | 24 | 257 | 0.0 | 0.0 | 0.00 | 0.00 | 0.00 | 91 | 1023.6 |
| 20260831141935 | 24 | 256 | 0.0 | 0.0 | 0.00 | 0.00 | 0.00 | 92 | 1023.6 |
| 20260831141202 | 24 | 256 | 0.0 | 0.0 | 0.00 | 0.00 | 0.00 | 92 | 1023.4 |
| 20260831140637 | 23 | 204 | 0.0 | 0.0 | 0.00 | 0.00 | 0.00 | 93 | 1023.5 |
| 20260831140133 | 23 | 254 | 0.0 | 0.0 | 0.00 | 0.00 | 0.00 | 93 | 1023.5 |
| 20260831135604 | 23 | 257 | 0.0 | 0.0 | 0.00 | 0.00 | 0.00 | 94 | 1023.4 |
| 20260831135103 | 23 | 257 | 0.0 | 0.0 | 0.00 | 0.00 | 0.00 | 94 | 1023.3 |
| 20260831134542 | 23 | 257 | 0.0 | 0.0 | 0.00 | 0.00 | 0.00 | 94 | 1023.3 |
| 20260831134041 | 23 | 234 | 0.0 | 0.0 | 0.00 | 0.00 | 0.00 | 94 | 1023.2 |
| 20260831133540 | 23 | 225 | 0.0 | 0.0 | 0.00 | 0.00 | 0.00 | 94 | 1023.2 |
| 20260831133311 | 22 | 225 | 0.0 | 0.0 | 0.00 | 0.00 | 0.00 | 94 | 1023.1 |
| 20260831132517 | 22 | 243 | 0.0 | 0.0 | 0.00 | 0.00 | 0.00 | 94 | 1022.9 |
| 20260831131948 | 22 | 242 | 0.0 | 0.0 | 0.00 | 0.00 | 0.00 | 94 | 1023.0 |
| 20260831131447 | 22 | 228 | 0.0 | 0.0 | 0.00 | 0.00 | 0.00 | 94 | 1023.0 |
| 20260831131153 | 22 | 233 | 0.0 | 3.2 | 0.00 | 0.00 | 0.00 | 94 | 1022.9 |
| 20260831130407 | 22 | 211 | 0.0 | 3.2 | 0.00 | 0.00 | 0.00 | 95 | 1022.8 |
| 20260831125906 | 22 | 219 | 0.0 | 0.0 | 0.00 | 0.00 | 0.00 | 95 | 1022.8 |
| 20260831125402 | 22 | 215 | 0.0 | 1.6 | 0.00 | 0.00 | 0.00 | 95 | 1022.7 |
| 20260831124901 | 22 | 197 | 0.0 | 1.6 | 0.00 | 0.00 | 0.00 | 95 | 1022.6 |
| 20260831124335 | 22 | 203 | 0.0 | 0.0 | 0.00 | 0.00 | 0.00 | 95 | 1022.5 |
| 20260831123804 | 22 | 207 | 0.0 | 0.0 | 0.00 | 0.00 | 0.00 | 95 | 1022.5 |
| 20260831123303 | 22 | 205 | 0.0 | 0.0 | 0.00 | 0.00 | 0.00 | 95 | 1022.6 |
| 20260831122742 | 22 | 213 | 0.0 | 3.2 | 0.00 | 0.00 | 0.00 | 95 | 1022.7 |
| 20260831122216 | 22 | 234 | 0.0 | 3.2 | 0.00 | 0.00 | 0.00 | 95 | 1022.5 |
| 20260831121715 | 22 | 215 | 0.0 | 3.2 | 0.00 | 0.00 | 0.00 | 95 | 1022.5 |
| 20260831121210 | 22 | 209 | 0.0 | 3.2 | 0.00 | 0.00 | 0.00 | 95 | 1022.2 |
| 20260831120645 | 22 | 217 | 0.0 | 1.6 | 0.00 | 0.00 | 0.00 | 95 | 1022.2 |
| 20260831120116 | 22 | 223 | 0.0 | 0.0 | 0.00 | 0.00 | 0.00 | 95 | 1022.4 |
| 20260831115609 | 22 | 202 | 0.0 | 0.0 | 0.00 | 0.00 | 0.00 | 94 | 1022.1 |
| 20260831115040 | 22 | 236 | 0.0 | 1.6 | 0.00 | 0.00 | 0.00 | 94 | 1022.0 |
| 20260831114536 | 22 | 238 | 0.0 | 1.6 | 0.00 | 0.00 | 0.00 | 94 | 1021.8 |
| 20260831114030 | 22 | 221 | 0.0 | 1.6 | 0.00 | 0.00 | 0.00 | 94 | 1021.8 |
| 20260831113529 | 22 | 221 | 0.0 | 3.2 | 0.00 | 0.00 | 0.00 | 94 | 1021.7 |
| 20260831113015 | 22 | 236 | 0.0 | 3.2 | 0.00 | 0.00 | 0.00 | 94 | 1021.8 |
| 20260831112515 | 22 | 229 | 0.0 | 3.2 | 0.00 | 0.00 | 0.00 | 94 | 1021.7 |
| 20260831111946 | 22 | 206 | 0.0 | 3.2 | 0.00 | 0.00 | 0.00 | 94 | 1021.6 |
| 20260831111421 | 22 | 238 | 0.0 | 1.6 | 0.00 | 0.00 | 0.00 | 94 | 1021.7 |
| 20260831110854 | 22 | 209 | 0.0 | 1.6 | 0.00 | 0.00 | 0.00 | 94 | 1021.5 |
| 20260831110354 | 22 | 213 | 0.0 | 6.4 | 0.00 | 0.00 | 0.00 | 94 | 1021.4 |
| 20260831105849 | 22 | 225 | 0.0 | 6.4 | 0.00 | 0.00 | 0.00 | 94 | 1021.3 |
| 20260831105625 | 22 | 208 | 0.0 | 6.4 | 0.00 | 0.00 | 0.00 | 94 | 1021.2 |
| 20260831104824 | 22 | 227 | 0.0 | 6.4 | 0.00 | 0.00 | 0.00 | 94 | 1021.2 |
| 20260831104323 | 22 | 223 | 0.0 | 3.2 | 0.00 | 0.00 | 0.00 | 94 | 1021.1 |
| 20260831104033 | 22 | 216 | 0.0 | 3.2 | 0.00 | 0.00 | 0.00 | 94 | 1021.2 |
| 20260831103300 | 22 | 225 | 0.0 | 8.0 | 0.00 | 0.00 | 0.00 | 94 | 1021.3 |
| 20260831102759 | 22 | 228 | 0.0 | 8.0 | 0.00 | 0.00 | 0.00 | 94 | 1021.3 |
| 20260831102305 | 22 | 207 | 1.6 | 12.9 | 0.00 | 0.00 | 0.00 | 94 | 1021.3 |
| 20260831102021 | 22 | 239 | 1.6 | 12.9 | 0.00 | 0.00 | 0.00 | 94 | 1021.3 |
| 20260831101252 | 22 | 240 | 0.0 | 9.7 | 0.00 | 0.00 | 0.00 | 94 | 1021.3 |
| 20260831100726 | 22 | 210 | 0.0 | 9.7 | 0.00 | 0.00 | 0.00 | 94 | 1021.2 |
| 20260831100158 | 22 | 228 | 0.0 | 8.0 | 0.00 | 0.00 | 0.00 | 94 | 1021.2 |
| 20260831095658 | 22 | 203 | 0.0 | 8.0 | 0.00 | 0.00 | 0.00 | 94 | 1021.2 |
| 20260831095146 | 22 | 227 | 0.0 | 4.8 | 0.00 | 0.00 | 0.00 | 94 | 1021.2 |
| 20260831094618 | 22 | 190 | 0.0 | 4.8 | 0.00 | 0.00 | 0.00 | 94 | 1021.0 |
| 20260831094114 | 22 | 215 | 0.0 | 4.8 | 0.00 | 0.00 | 0.00 | 94 | 1021.1 |
| 20260831093825 | 22 | 223 | 0.0 | 11.3 | 0.00 | 0.00 | 0.00 | 94 | 1021.2 |
| 20260831093020 | 22 | 229 | 0.0 | 11.3 | 0.00 | 0.00 | 0.00 | 94 | 1021.3 |
| 20260831092735 | 22 | 226 | 0.0 | 14.5 | 0.00 | 0.00 | 0.00 | 93 | 1021.2 |
| 20260831092007 | 22 | 216 | 0.0 | 14.5 | 0.00 | 0.00 | 0.00 | 93 | 1021.2 |
| 20260831091944 | 22 | 211 | 0.0 | 8.0 | 0.00 | 0.00 | 0.00 | 93 | 1021.2 |
| 20260831091438 | 22 | 214 | 0.0 | 8.0 | 0.00 | 0.00 | 0.00 | 93 | 1021.1 |
| 20260831090428 | 22 | 222 | 0.0 | 8.0 | 0.00 | 0.00 | 0.00 | 93 | 1021.1 |
| 20260831085928 | 22 | 213 | 0.0 | 6.4 | 0.00 | 0.00 | 0.00 | 93 | 1021.1 |
| 20260831085410 | 22 | 214 | 0.0 | 6.4 | 0.00 | 0.00 | 0.00 | 93 | 1021.0 |
| 20260831085142 | 22 | 206 | 0.0 | 3.2 | 0.00 | 0.00 | 0.00 | 93 | 1021.1 |
| 20260831084410 | 22 | 225 | 0.0 | 16.1 | 0.00 | 0.00 | 0.00 | 93 | 1021.1 |
| 20260831083900 | 22 | 214 | 0.0 | 16.1 | 0.00 | 0.00 | 0.00 | 92 | 1021.1 |
| 20260831083633 | 22 | 213 | 0.0 | 3.2 | 0.00 | 0.00 | 0.00 | 92 | 1021.1 |
| 20260831082837 | 22 | 226 | 0.0 | 11.3 | 0.00 | 0.00 | 0.00 | 92 | 1021.0 |
| 20260831082327 | 22 | 227 | 0.0 | 11.3 | 0.00 | 0.00 | 0.00 | 92 | 1021.0 |
| 20260831082059 | 22 | 242 | 0.0 | 11.3 | 0.00 | 0.00 | 0.00 | 92 | 1020.9 |
| 20260831081305 | 22 | 189 | 0.0 | 11.3 | 0.00 | 0.00 | 0.00 | 92 | 1020.8 |
| 20260831080805 | 23 | 229 | 0.0 | 9.7 | 0.00 | 0.00 | 0.00 | 92 | 1020.8 |
| 20260831080536 | 23 | 234 | 0.0 | 6.4 | 0.00 | 0.00 | 0.00 | 92 | 1020.9 |
| 20260831075805 | 23 | 246 | 0.0 | 4.8 | 0.00 | 0.00 | 0.00 | 92 | 1020.9 |
| 20260831075252 | 23 | 215 | 0.0 | 12.9 | 0.00 | 0.00 | 0.00 | 92 | 1020.9 |
| 20260831074727 | 23 | 235 | 0.0 | 11.3 | 0.00 | 0.00 | 0.00 | 92 | 1020.9 |
| 20260831074228 | 23 | 226 | 0.0 | 6.4 | 0.00 | 0.00 | 0.00 | 92 | 1020.9 |
| 20260831073727 | 22 | 234 | 0.0 | 6.4 | 0.00 | 0.00 | 0.00 | 91 | 1020.9 |
| 20260831073158 | 22 | 186 | 0.0 | 12.9 | 0.00 | 0.00 | 0.00 | 91 | 1020.8 |
| 20260831072634 | 22 | 182 | 0.0 | 12.9 | 0.00 | 0.00 | 0.00 | 91 | 1020.9 |
| 20260831072117 | 22 | 190 | 1.6 | 14.5 | 0.00 | 0.00 | 0.00 | 91 | 1020.8 |
| 20260831071614 | 22 | 236 | 1.6 | 14.5 | 0.00 | 0.00 | 0.00 | 91 | 1020.8 |
| 20260831071346 | 22 | 240 | 0.0 | 12.9 | 0.00 | 0.00 | 0.00 | 91 | 1021.0 |
| 20260831070839 | 22 | 202 | 0.0 | 12.9 | 0.00 | 0.00 | 0.00 | 91 | 1020.9 |
| 20260831070104 | 22 | 219 | 0.0 | 12.9 | 0.00 | 0.00 | 0.00 | 91 | 1021.1 |
| 20260831065602 | 22 | 177 | 1.6 | 12.9 | 0.00 | 0.00 | 0.00 | 91 | 1021.2 |
| 20260831065042 | 22 | 184 | 1.6 | 14.5 | 0.00 | 0.00 | 0.00 | 91 | 1021.2 |
| 20260831064535 | 22 | 206 | 1.6 | 14.5 | 0.00 | 0.00 | 0.00 | 91 | 1021.3 |
| 20260831064017 | 22 | 210 | 0.0 | 11.3 | 0.00 | 0.00 | 0.00 | 91 | 1021.4 |
| 20260831063521 | 22 | 196 | 1.6 | 12.9 | 0.00 | 0.00 | 0.00 | 91 | 1021.5 |
| 20260831063517 | 22 | 194 | 1.6 | 12.9 | 0.00 | 0.00 | 0.00 | 91 | 1021.4 |
| 20260831062456 | 22 | 190 | 0.0 | 12.9 | 0.00 | 0.00 | 0.00 | 91 | 1021.5 |
| 20260831061934 | 22 | 164 | 0.0 | 16.1 | 0.00 | 0.00 | 0.00 | 90 | 1021.6 |
| 20260831061404 | 22 | 181 | 0.0 | 16.1 | 0.00 | 0.00 | 0.00 | 90 | 1021.7 |
| 20260831060839 | 22 | 199 | 0.0 | 3.2 | 0.00 | 0.00 | 0.00 | 90 | 1021.7 |
| 20260831060321 | 22 | 231 | 0.0 | 9.7 | 0.00 | 0.00 | 0.00 | 90 | 1021.8 |
| 20260831060026 | 22 | 193 | 0.0 | 9.7 | 0.00 | 0.00 | 0.00 | 90 | 1021.9 |
| 20260831055237 | 22 | 180 | 0.0 | 8.0 | 0.00 | 0.00 | 0.00 | 90 | 1021.9 |
| 20260831054951 | 23 | 185 | 0.0 | 8.0 | 0.00 | 0.00 | 0.00 | 89 | 1021.9 |
| 20260831054714 | 23 | 180 | 0.0 | 8.0 | 0.00 | 0.00 | 0.00 | 89 | 1021.9 |
| 20260831053713 | 23 | 207 | 0.0 | 4.8 | 0.00 | 0.00 | 0.00 | 89 | 1022.0 |
| 20260831053153 | 23 | 189 | 0.0 | 9.7 | 0.00 | 0.00 | 0.00 | 89 | 1021.9 |
| 20260831052629 | 23 | 180 | 0.0 | 9.7 | 0.00 | 0.00 | 0.00 | 89 | 1022.1 |
| 20260831052114 | 23 | 197 | 0.0 | 0.0 | 0.00 | 0.00 | 0.00 | 89 | 1022.2 |
| 20260831051616 | 23 | 175 | 0.0 | 0.0 | 0.00 | 0.00 | 0.00 | 89 | 1022.2 |
| 20260831051046 | 23 | 181 | 0.0 | 3.2 | 0.00 | 0.00 | 0.00 | 88 | 1022.2 |
| 20260831050549 | 23 | 185 | 0.0 | 3.2 | 0.00 | 0.00 | 0.00 | 88 | 1022.4 |
| 20260831050023 | 23 | 194 | 0.0 | 9.7 | 0.00 | 0.00 | 0.00 | 88 | 1022.5 |
| 20260831045503 | 23 | 215 | 0.0 | 3.2 | 0.00 | 0.00 | 0.00 | 88 | 1022.5 |
| 20260831044934 | 23 | 213 | 0.0 | 11.3 | 0.00 | 0.00 | 0.00 | 88 | 1022.4 |
| 20260831044434 | 23 | 198 | 0.0 | 11.3 | 0.00 | 0.00 | 0.00 | 88 | 1022.5 |
| 20260831043907 | 23 | 186 | 0.0 | 11.3 | 0.00 | 0.00 | 0.00 | 88 | 1022.5 |
| 20260831043404 | 23 | 166 | 0.0 | 8.0 | 0.00 | 0.00 | 0.00 | 88 | 1022.5 |
| 20260831042907 | 23 | 184 | 0.0 | 8.0 | 0.00 | 0.00 | 0.00 | 88 | 1022.6 |
| 20260831042403 | 23 | 188 | 0.0 | 9.7 | 0.00 | 0.00 | 0.00 | 88 | 1022.6 |
| 20260831041904 | 23 | 188 | 0.0 | 9.7 | 0.00 | 0.00 | 0.00 | 88 | 1022.5 |
| 20260831041611 | 23 | 210 | 0.0 | 11.3 | 0.00 | 0.00 | 0.00 | 88 | 1022.5 |